User: anonymous   Login
Location: Newark
(49.7697°N, 2.7094°E)
Time: 03:19:46
(UTC+00:00)
Language:

Oscar 19 - Orbit

View from above orbital plane
View from above orbital plane
View from above satellite
View from above satellite

Ground track
Ground track

The orbit data is extracted from the following two-line orbital elements,

1 20442U 90005G   20091.86594467 +.00000019 +00000-0 +23350-4 0  9994
2 20442 098.6844 038.8855 0012329 028.3228 331.8623 14.32948650577447
Epoch (UTC): 31 March 2020 20:46:57
Eccentricity: 0.0012329
inclination: 98.6844°
perigee height: 773 km
apogee height: 791 km
right ascension of ascending node: 38.8855°
argument of perigee: 28.3228°
revolutions per day: 14.32948650
mean anomaly at epoch: 331.8623°
orbit number at epoch: 57744

The dashed part of the orbit path shows where the satellite is in the earth's shadow,  

DLR